�������l�o���
Date,Time,MP-1(��Sv/h),MP-2(��Sv/h),MP-3(��Sv/h),MP-4(��Sv/h),MP-5(��Sv/h),MP-6(��Sv/h),MP-7(��Sv/h),����,����(m/s),���J
2022/03/10,00:00,0.161,0.148,0.236,0.227,0.226,0.128,0.082,�k,1.4,��
2022/03/10,00:10,0.162,0.148,0.236,0.227,0.227,0.129,0.081,�k�k��,1.3,��
2022/03/10,00:20,0.162,0.147,0.236,0.227,0.226,0.128,0.081,�k��,1.3,��
2022/03/10,00:30,0.163,0.148,0.236,0.228,0.226,0.128,0.082,�k��,1.3,��
2022/03/10,00:40,0.162,0.149,0.235,0.228,0.227,0.127,0.082,���k��,0.7,��
2022/03/10,00:50,0.163,0.148,0.237,0.227,0.226,0.128,0.081,�k,1.0,��
2022/03/10,01:00,0.161,0.149,0.236,0.227,0.227,0.128,0.081,�k,1.0,��
2022/03/10,01:10,0.162,0.149,0.235,0.226,0.226,0.128,0.082,-,CALM,��
2022/03/10,01:20,0.163,0.149,0.236,0.228,0.225,0.128,0.082,-,CALM,��
2022/03/10,01:30,0.162,0.149,0.237,0.227,0.226,0.129,0.082,�k�k��,0.7,��
2022/03/10,01:40,0.162,0.148,0.236,0.226,0.226,0.128,0.081,�k��,1.1,��
2022/03/10,01:50,0.162,0.149,0.235,0.227,0.227,0.128,0.081,�k��,1.0,��
2022/03/10,02:00,0.162,0.148,0.236,0.227,0.227,0.128,0.082,�k�k��,0.5,��
2022/03/10,02:10,0.161,0.149,0.236,0.226,0.226,0.128,0.082,�k,0.7,��
2022/03/10,02:20,0.163,0.148,0.237,0.228,0.227,0.128,0.081,�k��,0.7,��
2022/03/10,02:30,0.162,0.148,0.236,0.227,0.226,0.127,0.082,�k��,0.7,��
2022/03/10,02:40,0.162,0.147,0.235,0.227,0.227,0.128,0.081,�k��,0.7,��
2022/03/10,02:50,0.162,0.148,0.236,0.226,0.225,0.128,0.081,�k,0.7,��
2022/03/10,03:00,0.162,0.148,0.236,0.225,0.225,0.128,0.081,�k�k��,0.8,��
2022/03/10,03:10,0.162,0.148,0.236,0.227,0.226,0.128,0.081,�k��,1.1,��
2022/03/10,03:20,0.163,0.149,0.236,0.227,0.225,0.129,0.081,�k��,1.3,��
2022/03/10,03:30,0.162,0.147,0.236,0.227,0.227,0.127,0.082,�k��,0.8,��
2022/03/10,03:40,0.163,0.150,0.236,0.227,0.226,0.128,0.081,�k�k��,0.7,��
2022/03/10,03:50,0.161,0.148,0.235,0.227,0.226,0.128,0.081,-,CALM,��
2022/03/10,04:00,0.162,0.148,0.236,0.227,0.226,0.128,0.082,�k��,1.0,��
2022/03/10,04:10,0.162,0.149,0.235,0.227,0.225,0.128,0.082,�k��,0.8,��
2022/03/10,04:20,0.162,0.148,0.234,0.226,0.225,0.128,0.082,-,CALM,��
2022/03/10,04:30,0.162,0.147,0.235,0.227,0.225,0.127,0.080,�k��,0.5,��
2022/03/10,04:40,0.162,0.147,0.235,0.227,0.225,0.128,0.081,�k,0.5,��
2022/03/10,04:50,0.161,0.147,0.235,0.227,0.225,0.127,0.081,-,CALM,��
2022/03/10,05:00,0.162,0.147,0.236,0.227,0.227,0.127,0.082,��,0.8,��
2022/03/10,05:10,0.161,0.148,0.235,0.227,0.225,0.128,0.082,���k��,0.8,��
2022/03/10,05:20,0.162,0.148,0.234,0.226,0.226,0.127,0.081,���k��,1.6,��
2022/03/10,05:30,0.162,0.148,0.235,0.226,0.227,0.128,0.082,���k��,1.6,��
2022/03/10,05:40,0.162,0.148,0.236,0.227,0.227,0.128,0.081,���쓌,0.7,��
2022/03/10,05:50,0.161,0.147,0.235,0.226,0.228,0.128,0.081,���k��,1.3,��
2022/03/10,06:00,0.162,0.148,0.237,0.227,0.227,0.128,0.081,���k��,0.8,��
2022/03/10,06:10,0.162,0.148,0.235,0.225,0.226,0.128,0.082,-,CALM,��
2022/03/10,06:20,0.162,0.148,0.235,0.226,0.226,0.127,0.081,-,CALM,��
2022/03/10,06:30,0.162,0.148,0.235,0.226,0.226,0.127,0.081,�k,0.8,��
2022/03/10,06:40,0.163,0.148,0.236,0.226,0.226,0.128,0.081,�k��,0.8,��
2022/03/10,06:50,0.162,0.148,0.235,0.225,0.226,0.129,0.081,���k��,1.1,��
2022/03/10,07:00,0.162,0.148,0.234,0.226,0.226,0.128,0.081,�k��,0.7,��
2022/03/10,07:10,0.162,0.148,0.235,0.226,0.226,0.128,0.082,���쓌,0.7,��
2022/03/10,07:20,0.162,0.148,0.236,0.226,0.227,0.128,0.081,-,CALM,��
2022/03/10,07:30,0.162,0.147,0.235,0.226,0.227,0.128,0.081,���k��,1.0,��
2022/03/10,07:40,0.162,0.148,0.236,0.226,0.226,0.128,0.081,-,CALM,��
2022/03/10,07:50,0.164,0.148,0.236,0.226,0.227,0.128,0.081,���k��,0.5,��
2022/03/10,08:00,0.162,0.148,0.235,0.226,0.227,0.129,0.081,-,CALM,��
2022/03/10,08:10,0.163,0.148,0.235,0.226,0.227,0.128,0.081,���쓌,1.6,��
2022/03/10,08:20,0.162,0.149,0.235,0.226,0.226,0.128,0.082,�쓌,1.8,��
2022/03/10,08:30,0.162,0.148,0.235,0.226,0.227,0.128,0.081,�쓌,1.0,��
2022/03/10,08:40,0.163,0.147,0.235,0.226,0.227,0.128,0.082,�k,0.7,��
2022/03/10,08:50,0.163,0.147,0.235,0.227,0.227,0.128,0.081,���k��,1.3,��
2022/03/10,09:00,0.161,0.147,0.235,0.226,0.227,0.129,0.082,�k��,1.3,��
2022/03/10,09:10,0.162,0.147,0.234,0.228,0.227,0.127,0.081,�k��,1.6,��
2022/03/10,09:20,0.161,0.148,0.236,0.225,0.227,0.129,0.082,���k��,2.1,��
2022/03/10,09:30,0.161,0.147,0.236,0.226,0.227,0.129,0.082,���k��,1.6,��
2022/03/10,09:40,0.162,0.147,0.235,0.226,0.226,0.129,0.082,���k��,2.1,��
2022/03/10,09:50,0.161,0.149,0.235,0.225,0.228,0.127,0.082,��,2.4,��
2022/03/10,10:00,0.161,0.149,0.235,0.227,0.227,0.128,0.081,��,2.1,��
2022/03/10,10:10,0.161,0.148,0.237,0.225,0.228,0.128,0.082,���쓌,1.1,��
2022/03/10,10:20,0.162,0.148,0.238,0.227,0.225,0.128,0.082,��,1.9,��
2022/03/10,10:30,0.162,0.149,0.236,0.226,0.228,0.127,0.082,��,1.9,��
2022/03/10,10:40,0.162,0.148,0.234,0.227,0.227,0.129,0.082,��,2.1,��
2022/03/10,10:50,0.162,0.147,0.234,0.226,0.228,0.127,0.082,���쓌,2.1,��
2022/03/10,11:00,0.161,0.147,0.234,0.226,0.228,0.128,0.081,��,1.9,��
2022/03/10,11:10,0.163,0.148,0.236,0.227,0.226,0.128,0.081,���쓌,1.9,��
2022/03/10,11:20,0.162,0.148,0.235,0.227,0.227,0.127,0.082,��,2.4,��
2022/03/10,11:30,0.162,0.147,0.235,0.227,0.226,0.128,0.080,�쓌,1.3,��
2022/03/10,11:40,0.162,0.148,0.235,0.227,0.228,0.127,0.081,��,2.5,��
2022/03/10,11:50,0.161,0.147,0.235,0.226,0.226,0.128,0.081,���쓌,2.1,��
2022/03/10,12:00,0.161,0.147,0.236,0.226,0.227,0.126,0.081,���쓌,1.9,��
2022/03/10,12:10,0.161,0.148,0.234,0.226,0.226,0.128,0.081,��,2.5,��
2022/03/10,12:20,0.160,0.148,0.234,0.226,0.227,0.127,0.081,��,2.9,��
2022/03/10,12:30,0.161,0.150,0.234,0.225,0.225,0.127,0.080,��,2.4,��
2022/03/10,12:40,0.162,0.147,0.234,0.227,0.227,0.127,0.081,���쓌,2.7,��
2022/03/10,12:50,0.161,0.147,0.235,0.224,0.225,0.126,0.080,���쓌,2.9,��
2022/03/10,13:00,0.162,0.147,0.234,0.228,0.228,0.127,0.080,���쓌,3.0,��
2022/03/10,13:10,0.161,0.147,0.235,0.224,0.224,0.127,0.081,���쓌,3.5,��
2022/03/10,13:20,0.162,0.147,0.234,0.226,0.226,0.127,0.080,���쓌,3.0,��
2022/03/10,13:30,0.161,0.146,0.235,0.226,0.225,0.127,0.081,���쓌,2.7,��
2022/03/10,13:40,0.161,0.147,0.235,0.227,0.228,0.128,0.080,���쓌,2.4,��
2022/03/10,13:50,0.161,0.147,0.236,0.227,0.225,0.127,0.081,���쓌,2.5,��
2022/03/10,14:00,0.160,0.146,0.234,0.225,0.227,0.127,0.081,�쓌,2.4,��
2022/03/10,14:10,0.162,0.147,0.233,0.228,0.224,0.127,0.081,��,2.5,��
2022/03/10,14:20,0.160,0.147,0.235,0.225,0.226,0.128,0.081,���쓌,2.7,��
2022/03/10,14:30,0.161,0.146,0.235,0.228,0.225,0.127,0.081,���쓌,2.4,��
2022/03/10,14:40,0.161,0.148,0.235,0.226,0.225,0.128,0.080,���쓌,2.8,��
2022/03/10,14:50,0.161,0.147,0.235,0.225,0.225,0.128,0.081,���쓌,2.1,��
2022/03/10,15:00,0.160,0.148,0.234,0.227,0.227,0.127,0.080,���쓌,2.7,��
2022/03/10,15:10,0.161,0.147,0.235,0.226,0.226,0.127,0.081,���쓌,1.6,��
2022/03/10,15:20,0.160,0.147,0.235,0.227,0.226,0.127,0.081,���쓌,1.3,��
2022/03/10,15:30,0.161,0.148,0.235,0.228,0.226,0.127,0.080,���쓌,2.2,��
2022/03/10,15:40,0.162,0.148,0.236,0.227,0.226,0.128,0.081,���쓌,1.8,��
2022/03/10,15:50,0.161,0.147,0.235,0.227,0.226,0.126,0.080,�쓌,2.2,��
2022/03/10,16:00,0.162,0.147,0.235,0.227,0.226,0.127,0.081,�쓌,1.6,��
2022/03/10,16:10,0.162,0.147,0.235,0.227,0.225,0.127,0.081,���쓌,2.1,��
2022/03/10,16:20,0.161,0.147,0.235,0.227,0.226,0.128,0.081,���쓌,2.5,��
2022/03/10,16:30,0.162,0.147,0.235,0.226,0.224,0.128,0.080,���쓌,1.4,��
2022/03/10,16:40,0.161,0.147,0.236,0.226,0.224,0.128,0.080,�쓌,1.0,��
2022/03/10,16:50,0.161,0.148,0.235,0.226,0.227,0.128,0.081,�쓌,2.2,��
2022/03/10,17:00,0.162,0.148,0.235,0.227,0.226,0.128,0.080,�쓌,1.4,��
2022/03/10,17:10,0.162,0.147,0.236,0.227,0.226,0.128,0.080,�쓌,1.9,��
2022/03/10,17:20,0.161,0.148,0.234,0.227,0.227,0.128,0.081,�쓌,2.2,��
2022/03/10,17:30,0.161,0.147,0.235,0.226,0.226,0.127,0.080,�쓌,2.1,��
2022/03/10,17:40,0.161,0.147,0.236,0.226,0.226,0.128,0.081,�쓌,2.7,��
2022/03/10,17:50,0.162,0.147,0.234,0.226,0.226,0.129,0.080,��쓌,2.1,��
2022/03/10,18:00,0.161,0.147,0.234,0.226,0.226,0.128,0.081,�쓌,2.5,��
2022/03/10,18:10,0.161,0.148,0.235,0.227,0.225,0.127,0.081,�쓌,2.2,��
2022/03/10,18:20,0.161,0.146,0.235,0.227,0.226,0.127,0.081,��쓌,2.4,��
2022/03/10,18:30,0.162,0.147,0.235,0.226,0.226,0.128,0.081,��쓌,1.9,��
2022/03/10,18:40,0.161,0.147,0.234,0.227,0.225,0.127,0.081,��쓌,1.6,��
2022/03/10,18:50,0.161,0.146,0.235,0.226,0.226,0.127,0.081,��쓌,1.9,��
2022/03/10,19:00,0.162,0.147,0.235,0.227,0.225,0.127,0.081,��쓌,2.1,��
2022/03/10,19:10,0.161,0.147,0.234,0.227,0.226,0.128,0.081,��쓌,1.9,��
2022/03/10,19:20,0.161,0.148,0.235,0.226,0.226,0.128,0.080,��쓌,1.0,��
2022/03/10,19:30,0.162,0.147,0.236,0.226,0.226,0.128,0.082,��쓌,1.3,��
2022/03/10,19:40,0.161,0.147,0.235,0.227,0.226,0.127,0.081,��쓌,2.2,��
2022/03/10,19:50,0.161,0.146,0.234,0.226,0.225,0.127,0.081,�쓌,1.4,��
2022/03/10,20:00,0.161,0.148,0.235,0.226,0.226,0.128,0.080,��,1.1,��
2022/03/10,20:10,0.160,0.148,0.235,0.227,0.226,0.127,0.081,��쓌,2.2,��
2022/03/10,20:20,0.161,0.148,0.237,0.227,0.226,0.128,0.082,��,2.7,��
2022/03/10,20:30,0.162,0.148,0.235,0.227,0.227,0.128,0.081,��쓌,4.4,��
2022/03/10,20:40,0.161,0.148,0.236,0.226,0.226,0.127,0.081,��,3.7,��
2022/03/10,20:50,0.161,0.149,0.234,0.226,0.226,0.128,0.081,��,5.2,��
2022/03/10,21:00,0.162,0.147,0.234,0.227,0.226,0.128,0.082,��,5.2,��
2022/03/10,21:10,0.161,0.148,0.236,0.227,0.226,0.128,0.082,��,5.2,��
2022/03/10,21:20,0.162,0.148,0.235,0.227,0.226,0.128,0.081,��,5.9,��
2022/03/10,21:30,0.162,0.147,0.236,0.229,0.227,0.128,0.082,��,6.2,��
2022/03/10,21:40,0.161,0.148,0.236,0.227,0.227,0.128,0.081,��,6.2,��
2022/03/10,21:50,0.161,0.148,0.236,0.227,0.227,0.129,0.082,��,6.5,��
2022/03/10,22:00,0.162,0.147,0.235,0.228,0.226,0.128,0.082,��,6.9,��
2022/03/10,22:10,0.161,0.148,0.237,0.227,0.227,0.128,0.082,��,7.7,��
2022/03/10,22:20,0.161,0.148,0.236,0.228,0.227,0.129,0.081,��,7.1,��
2022/03/10,22:30,0.162,0.149,0.237,0.227,0.227,0.128,0.082,��,6.3,��
2022/03/10,22:40,0.162,0.148,0.235,0.227,0.228,0.129,0.082,��,6.4,��
2022/03/10,22:50,0.163,0.149,0.237,0.227,0.227,0.128,0.081,��,5.7,��
2022/03/10,23:00,0.161,0.147,0.237,0.227,0.227,0.128,0.082,��,5.2,��
2022/03/10,23:10,0.162,0.149,0.237,0.228,0.226,0.128,0.081,��,6.1,��
2022/03/10,23:20,0.163,0.148,0.236,0.228,0.228,0.129,0.082,��,5.0,��
2022/03/10,23:30,0.163,0.149,0.238,0.228,0.227,0.129,0.081,��,3.8,��
2022/03/10,23:40,0.163,0.147,0.236,0.227,0.227,0.128,0.081,��,3.2,��
2022/03/10,23:50,0.162,0.148,0.236,0.228,0.228,0.128,0.082,��,4.4,��
